This is the latest recevied weather packets stored in our database for station/object KC7RJK-2. If no packets are shown the sender has not sent any weather packets the latest 1 day(s).
| Time | Temp. | Humidity | Pressure | Rain* | Wind** | Luminosity | Snow |
|---|---|---|---|---|---|---|---|
| 1778095210 | 17.78° C | 81% | 1021.2 hPa | 0 mm | - | - | - |
| 1778093410 | 16.11° C | 83% | 1021.3 hPa | 0 mm | - | - | - |
| 1778091009 | 15° C | 84% | 1021.4 hPa | 0 mm | - | - | - |
| 1778089810 | 15° C | 86% | 1021.4 hPa | 0 mm | - | - | - |
| 1778088010 | 13.89° C | 87% | 1021.2 hPa | 0 mm | - | - | - |
| 1778087410 | 13.89° C | 89% | 1021.2 hPa | 0 mm | - | - | - |
| 1778084410 | 12.78° C | 91% | 1021.5 hPa | 0 mm | - | - | - |
| 1778082610 | 12.22° C | 91% | 1021.6 hPa | 0 mm | - | - | - |
| 1778080810 | 12.22° C | 91% | 1021.2 hPa | 0 mm | - | - | - |
| 1778079613 | 11.67° C | 92% | 1021.1 hPa | 0 mm | - | - | - |
| 1778073609 | 10.56° C | 95% | 1020.4 hPa | 0 mm | - | - | - |
| 1778071809 | 10° C | 95% | 1020.2 hPa | 0 mm | - | - | - |
| 1778071209 | 10° C | 95% | 1020.2 hPa | 0 mm | - | - | - |
| 1778070009 | 9.44° C | 95% | 1020 hPa | 0 mm | - | - | - |
| 1778069411 | 9.44° C | 95% | 1019.9 hPa | 0 mm | - | - | - |
| 1778068210 | 9.44° C | 95% | 1019.6 hPa | 0 mm | - | - | - |
| 1778067011 | 9.44° C | 95% | 1019.2 hPa | 0 mm | - | - | - |
| 1778065810 | 9.44° C | 95% | 1019 hPa | 0 mm | - | - | - |
| 1778062810 | 10° C | 94% | 1018.5 hPa | 0 mm | - | - | - |
| 1778061612 | 10° C | 94% | 1018.4 hPa | 0 mm | - | - | - |
| 1778061009 | 10° C | 94% | 1018.4 hPa | 0 mm | - | - | - |
| 1778060409 | 10.56° C | 94% | 1018.3 hPa | 0 mm | - | - | - |
| 1778057410 | 11.11° C | 93% | 1017.9 hPa | 0 mm | - | - | - |
| 1778056811 | 11.67° C | 92% | 1017.8 hPa | 0 mm | - | - | - |
| 1778053809 | 12.78° C | 93% | 1017.8 hPa | 0 mm | - | - | - |
* Rain latest hour (hover to see other rain measurements)
** Current wind speed in m/s (hover to see current wind gust speed)